TimePST,TemperatureF,Dew PointF,Humidity,Sea Level PressureIn,VisibilityMPH,Wind Direction,Wind SpeedMPH,Gust SpeedMPH,PrecipitationIn,Events,Conditions,WindDirDegrees,DateUTC
12:51 AM,46.9,30.0,52,30.34,10.0,NNE,4.6,-,N/A,,Clear,20,2011-12-25 08:51:00
1:51 AM,46.9,28.9,50,30.33,10.0,Calm,Calm,-,N/A,,Clear,0,2011-12-25 09:51:00
2:51 AM,46.0,28.0,50,30.32,10.0,Calm,Calm,-,N/A,,Clear,0,2011-12-25 10:51:00
3:51 AM,46.9,23.0,39,30.30,10.0,Calm,Calm,-,N/A,,Clear,0,2011-12-25 11:51:00
4:51 AM,45.0,25.0,46,30.30,10.0,Calm,Calm,-,N/A,,Clear,0,2011-12-25 12:51:00
5:51 AM,45.0,24.1,44,30.31,10.0,Calm,Calm,-,N/A,,Clear,0,2011-12-25 13:51:00
6:51 AM,46.9,21.0,36,30.32,10.0,Calm,Calm,-,N/A,,Clear,0,2011-12-25 14:51:00
7:51 AM,48.0,21.9,36,30.33,10.0,Calm,Calm,-,N/A,,Clear,0,2011-12-25 15:51:00
8:51 AM,55.0,23.0,29,30.34,10.0,Calm,Calm,-,N/A,,Clear,0,2011-12-25 16:51:00
9:51 AM,59.0,34.0,39,30.32,10.0,WSW,3.5,-,N/A,,Clear,240,2011-12-25 17:51:00
10:51 AM,64.9,26.1,23,30.30,10.0,Calm,Calm,-,N/A,,Clear,0,2011-12-25 18:51:00
11:51 AM,69.1,23.0,18,30.25,10.0,South,3.5,-,N/A,,Clear,190,2011-12-25 19:51:00
12:51 PM,71.1,30.0,22,30.22,10.0,NNW,5.8,-,N/A,,Clear,330,2011-12-25 20:51:00
1:51 PM,69.1,24.1,18,30.21,10.0,NW,9.2,-,N/A,,Clear,320,2011-12-25 21:51:00
2:51 PM,69.1,35.1,29,30.20,10.0,NW,9.2,-,N/A,,Clear,320,2011-12-25 22:51:00
3:51 PM,69.1,28.0,22,30.20,10.0,NNW,8.1,-,N/A,,Partly Cloudy,330,2011-12-25 23:51:00
4:51 PM,64.9,34.0,32,30.21,10.0,Variable,3.5,-,N/A,,Partly Cloudy,0,2011-12-26 00:51:00
5:51 PM,64.0,27.0,25,30.22,10.0,Calm,Calm,-,N/A,,Clear,0,2011-12-26 01:51:00
6:51 PM,59.0,30.9,35,30.22,10.0,Calm,Calm,-,N/A,,Clear,0,2011-12-26 02:51:00
7:51 PM,57.9,28.0,32,30.22,10.0,Calm,Calm,-,N/A,,Clear,0,2011-12-26 03:51:00
8:51 PM,55.0,30.0,38,30.22,10.0,Calm,Calm,-,N/A,,Clear,0,2011-12-26 04:51:00
9:51 PM,53.1,28.9,40,30.22,10.0,Calm,Calm,-,N/A,,Clear,0,2011-12-26 05:51:00
10:51 PM,52.0,30.0,43,30.22,10.0,Calm,Calm,-,N/A,,Clear,0,2011-12-26 06:51:00
11:51 PM,50.0,30.9,48,30.22,10.0,Calm,Calm,-,N/A,,Clear,0,2011-12-26 07:51:00